STARLINK-31858, 59658

Orbit data source: Space-Track

STARLINK-31858, 59658 is a payload satellite owned by SpaceX/Seattle (US) in LEO that was launched on Mon, 06 May 2024 UTC via an FALCON 9 launch vehicle from the Air Force Eastern Test Range (AFETR). Payload-class satellites include a variety of spacecraft equipped with specific instruments for various scientific and technological missions. These include communications satellites like Starlink; space stations such as the ISS; scientific satellites like the Hubble; Earth observation satellites from companies like Planet Labs, Umbra, and HawkEye 360; GPS; miniature CubeSats for education and research; and military/defense satellites.

Loading next visibility...
Identifier
59658, 2024-084E
Orbit
LEO
Country
Flag of USUS
Related business
Manufacturer
SpaceX/Seattle
Mission
Operational Commercial Communications
Bus & Motor
STARLINK V2M, Unknown motor
Mass
730 kg wet, ~700 kg dry
Launch date (UTC)
2024-05-06 (2 years ago)
Launch vehicle
FALCON 9
Launch site
Air Force Eastern Test Range (AFETR)
Object type
Payload
Rocket body
Debris
Shape & HBR
Box + 2 Pan, 17.7 m
Radar Cross Section
33.884 m², Large (>1 m²)

Expand to show TLE details & history
Last TLE update: 16 hours ago

TLE from 16 hours ago
0 STARLINK-31858
1 59658U 24084E   25348.21226694  .00005588  00000-0  21248-3 0  9991
2 59658  43.0019 164.2621 0001288 279.1650  80.9056 15.27572741 91305
Epoch: 2025-12-14T05:05Z
TLE epoch observation values (Epoch: 2025-12-14T05:05:39.863Z)
Latitude
-0.00002°
Longitude
4.71756°
Altitude
482.707 km
Speed
7.626 km/s
True Right ascension
10h 57m 02s
True Declination
0° 00' 00"
Sunlit
Object was in daylight at epoch
Visualization orbit readout
Latitude
Unknown
Longitude
Unknown
Altitude
Unknown
Speed
Unknown
Apparent Right ascension
Unknown
Apparent Declination
Unknown
Sunlit
N/A
Visualization observer readout
Local Sidereal Time
19:39:09
Azimuth
Unknown
Elevation
Unknown
Doppler factor
Unknown
Orbital elements
Apogee altitude
485.9 km
Perigee altitude
484.132 km
Semi-major axis
6,863.153 km
Eccentricity
0.00013
Inclination
43.0019°
RAAN
164.2621°
Arg. of periapsis
279.165°
True anomaly
80.92017°
Mean anomaly
80.9056°
Eccentric anomaly
80.91289°
Mean motion
3.81731 °/min
Orbital period
94.31 mins
BSTAR
0.00021248
Loading maneuver chart data...
Computing Atmospheric mass density...
Loading historical data...
Loading historical data...
Loading historical data...
Loading historical data...
Loading historical data...
Loading historical data...
Loading historical data...

Documentation

Showing up to 5 results
|